User: anonymous
Location: Dover
(39.1580°N, 75.5250°W)
Time: 15:53:08
(UTC-04:00)
Language:

SeaSat 1 - Orbit

View from above orbital plane
View from above orbital plane
View from above satellite
View from above satellite

Ground track
Ground track

The orbit data is extracted from the following two-line orbital elements,

1 10967U 78064A   14261.83974490  .00000182  00000-0  94986-4 0  3812
2 10967 107.9906 006.4978 0002408 249.8353 220.2059 14.43077190901982
Epoch (UTC): 18 September 2014 20:09:13
Eccentricity: 0.0002408
inclination: 107.9906°
perigee height: 746 km
apogee height: 750 km
right ascension of ascending node: 6.4978°
argument of perigee: 249.8353°
revolutions per day: 14.43077190
mean anomaly at epoch: 220.2059°
orbit number at epoch: 90198

The dashed part of the orbit path shows where the satellite is in the earth's shadow,  

DLR